Live-Position
3D-Globus wird geladen...
Über Starlink 3302
Group: 3 satellites
Beschreibung wird geladen...
Nächste Überflüge
Passes for default location (London). Set your location on the main map for personalized predictions.
Höhenverlauf
Loading altitude history...
No altitude history available
Zweizeiliger Elementsatz
1 50842U 22001AR 26107.09529274 -.00000571 00000-0 -17773-4 0 9992
2 50842 53.2185 6.7114 0001369 86.1626 273.9523 15.08834379236057
Epoch: 17. Apr. 2026 •
Age: 12 hours
Aktueller Status
Höhe 556.4 km
Geschwindigkeit 7.58 km/s
Subsatellitenpunkt -46.46°S,
113.64°W
Startdatum 6. Jan. 2022
Alter 4.2 years
Typ internet
Startgruppe
Falcon 9 •
Group 4-5 •
40 satellites
Starlink 3323
50804
Starlink 3333 50805
Starlink 3335 50806
Starlink 3355 50808
Starlink 3232 50809
Starlink 3338 50812
Starlink 3349 50813
Starlink 3324 50814
Starlink 3234 50815
Starlink 3342 50816
Starlink 3341 50817
Starlink 3336 50818
Starlink 3327 50819
Starlink 3339 50820
Starlink 3346 50821
Starlink 3343 50822
Starlink 3334 50823
Starlink 3332 50825
Starlink 3329 50827
Starlink 3290 50828
...and 19 more
Technische Details
Klassifizierung Payload
Masse 297.00 kg
Trockenmasse 275.00 kg
Gesamtmasse 297.00 kg
Länge 0.20 m
Durchmesser 2.80 m
Spannweite 9.00 m
Form Box + pan
Hersteller SPXS
Bus-Typ Starlink
Phasenstatus In Orbit
Besitzer/Staat SPXS/US
Most Searched
Loading...